Year,Month,Day,Hour,Minute,Value (Times are PST for temperature in C)
2010,07,09,00,00,21.00
2010,07,09,00,01,21.10
2010,07,09,00,02,21.10
2010,07,09,00,03,21.10
2010,07,09,00,04,21.10
2010,07,09,00,05,21.10
2010,07,09,00,06,21.10
2010,07,09,00,07,21.10
2010,07,09,00,08,21.20
2010,07,09,00,09,21.20
2010,07,09,00,10,21.20
2010,07,09,00,11,21.30
2010,07,09,00,12,21.30
2010,07,09,00,13,21.30
2010,07,09,00,14,21.30
2010,07,09,00,15,21.30
2010,07,09,00,16,21.30
2010,07,09,00,17,21.30
2010,07,09,00,18,21.30
2010,07,09,00,19,21.30
2010,07,09,00,20,21.30
2010,07,09,00,21,21.30
2010,07,09,00,22,21.30
2010,07,09,00,23,21.20
2010,07,09,00,24,21.20
2010,07,09,00,25,21.20
2010,07,09,00,26,21.20
2010,07,09,00,27,21.20
2010,07,09,00,28,21.20
2010,07,09,00,29,21.20
2010,07,09,00,30,21.20
2010,07,09,00,31,21.20
2010,07,09,00,32,21.20
2010,07,09,00,33,21.20
2010,07,09,00,34,21.20
2010,07,09,00,35,21.20
2010,07,09,00,36,21.20
2010,07,09,00,37,21.20
2010,07,09,00,38,21.20
2010,07,09,00,39,21.20
2010,07,09,00,40,21.20
2010,07,09,00,41,21.20
2010,07,09,00,42,21.20
2010,07,09,00,43,21.20
2010,07,09,00,44,21.20
2010,07,09,00,45,21.20
2010,07,09,00,46,21.10
2010,07,09,00,47,21.10
2010,07,09,00,48,21.10
2010,07,09,00,49,21.00
2010,07,09,00,50,21.00
2010,07,09,00,51,21.00
2010,07,09,00,52,21.00
2010,07,09,00,53,20.90
2010,07,09,00,54,20.90
2010,07,09,00,55,20.90
2010,07,09,00,56,20.80
2010,07,09,00,57,20.80
2010,07,09,00,58,20.80
2010,07,09,00,59,20.80
2010,07,09,01,00,20.70
2010,07,09,01,01,20.70
2010,07,09,01,02,20.70
2010,07,09,01,03,20.60
2010,07,09,01,04,20.60
2010,07,09,01,05,20.60
2010,07,09,01,06,20.50
2010,07,09,01,07,20.50
2010,07,09,01,08,20.50
2010,07,09,01,09,20.40
2010,07,09,01,10,20.40
2010,07,09,01,11,20.40
2010,07,09,01,12,20.40
2010,07,09,01,13,20.40
2010,07,09,01,14,20.40
2010,07,09,01,15,20.40
2010,07,09,01,16,20.40
2010,07,09,01,17,20.40
2010,07,09,01,18,20.40
2010,07,09,01,19,20.40
2010,07,09,01,20,20.40
2010,07,09,01,21,20.40
2010,07,09,01,22,20.30
2010,07,09,01,23,20.30
2010,07,09,01,24,20.30
2010,07,09,01,25,20.30
2010,07,09,01,26,20.30
2010,07,09,01,27,20.30
2010,07,09,01,28,20.20
2010,07,09,01,29,20.20
2010,07,09,01,30,20.20
2010,07,09,01,31,20.20
2010,07,09,01,32,20.20
2010,07,09,01,33,20.20
2010,07,09,01,34,20.10
2010,07,09,01,35,20.10
2010,07,09,01,36,20.00
2010,07,09,01,37,19.90
2010,07,09,01,38,19.90
2010,07,09,01,39,19.90
2010,07,09,01,40,19.80
2010,07,09,01,41,19.80
2010,07,09,01,42,19.70
2010,07,09,01,43,19.70
2010,07,09,01,44,19.60
2010,07,09,01,45,19.60
2010,07,09,01,46,19.60
2010,07,09,01,47,19.50
2010,07,09,01,48,19.50
2010,07,09,01,49,19.50
2010,07,09,01,50,19.40
2010,07,09,01,51,19.40
2010,07,09,01,52,19.40
2010,07,09,01,53,19.40
2010,07,09,01,54,19.40
2010,07,09,01,55,19.40
2010,07,09,01,56,19.40
2010,07,09,01,57,19.40
2010,07,09,01,58,19.40
2010,07,09,01,59,19.40
2010,07,09,02,00,19.40
2010,07,09,02,01,19.40
2010,07,09,02,02,19.40
2010,07,09,02,03,19.40
2010,07,09,02,04,19.40
2010,07,09,02,05,19.30
2010,07,09,02,06,19.30
2010,07,09,02,07,19.30
2010,07,09,02,08,19.20
2010,07,09,02,09,19.20
2010,07,09,02,10,19.10
2010,07,09,02,11,19.10
2010,07,09,02,12,19.10
2010,07,09,02,13,19.10
2010,07,09,02,14,19.10
2010,07,09,02,15,19.10
2010,07,09,02,16,19.10
2010,07,09,02,17,19.10
2010,07,09,02,18,19.10
2010,07,09,02,19,19.10
2010,07,09,02,20,19.00
2010,07,09,02,21,18.90
2010,07,09,02,22,18.90
2010,07,09,02,23,18.90
2010,07,09,02,24,18.90
2010,07,09,02,25,18.90
2010,07,09,02,26,18.90
2010,07,09,02,27,18.90
2010,07,09,02,28,18.90
2010,07,09,02,29,18.90
2010,07,09,02,30,18.90
2010,07,09,02,31,18.90
2010,07,09,02,32,18.90
2010,07,09,02,33,18.90
2010,07,09,02,34,18.90
2010,07,09,02,35,18.90
2010,07,09,02,36,18.90
2010,07,09,02,37,18.90
2010,07,09,02,38,18.90
2010,07,09,02,39,18.90
2010,07,09,02,40,18.90
2010,07,09,02,41,18.90
2010,07,09,02,42,18.90
2010,07,09,02,43,18.90
2010,07,09,02,44,18.90
2010,07,09,02,45,18.90
2010,07,09,02,46,18.90
2010,07,09,02,47,18.90
2010,07,09,02,48,18.90
2010,07,09,02,49,18.90
2010,07,09,02,50,18.90
2010,07,09,02,51,18.90
2010,07,09,02,52,18.90
2010,07,09,02,53,18.90
2010,07,09,02,54,18.90
2010,07,09,02,55,18.90
2010,07,09,02,56,18.90
2010,07,09,02,57,18.90
2010,07,09,02,58,18.80
2010,07,09,02,59,18.80
2010,07,09,03,00,18.80
2010,07,09,03,01,18.70
2010,07,09,03,02,18.70
2010,07,09,03,03,18.70
2010,07,09,03,04,18.70
2010,07,09,03,05,18.70
2010,07,09,03,06,18.70
2010,07,09,03,07,18.70
2010,07,09,03,08,18.70
2010,07,09,03,09,18.60
2010,07,09,03,10,18.60
2010,07,09,03,11,18.60
2010,07,09,03,12,18.60
2010,07,09,03,13,18.60
2010,07,09,03,14,18.60
2010,07,09,03,15,18.60
2010,07,09,03,16,18.60
2010,07,09,03,17,18.50
2010,07,09,03,18,18.50
2010,07,09,03,19,18.50
2010,07,09,03,20,18.50
2010,07,09,03,21,18.40
2010,07,09,03,22,18.40
2010,07,09,03,23,18.40
2010,07,09,03,24,18.30
2010,07,09,03,25,18.30
2010,07,09,03,26,18.30
2010,07,09,03,27,18.30
2010,07,09,03,28,18.20
2010,07,09,03,29,18.20
2010,07,09,03,30,18.20
2010,07,09,03,31,18.20
2010,07,09,03,32,18.20
2010,07,09,03,33,18.20
2010,07,09,03,34,18.10
2010,07,09,03,35,18.10
2010,07,09,03,36,18.10
2010,07,09,03,37,18.10
2010,07,09,03,38,18.00
2010,07,09,03,39,17.90
2010,07,09,03,40,17.90
2010,07,09,03,41,17.90
2010,07,09,03,42,17.90
2010,07,09,03,43,17.90
2010,07,09,03,44,17.90
2010,07,09,03,45,17.90
2010,07,09,03,46,17.90
2010,07,09,03,47,17.80
2010,07,09,03,48,17.80
2010,07,09,03,49,17.80
2010,07,09,03,50,17.80
2010,07,09,03,51,17.70
2010,07,09,03,52,17.70
2010,07,09,03,53,17.70
2010,07,09,03,54,17.70
2010,07,09,03,55,17.60
2010,07,09,03,56,17.60
2010,07,09,03,57,17.60
2010,07,09,03,58,17.60
2010,07,09,03,59,17.50
2010,07,09,04,00,17.50
2010,07,09,04,01,17.50
2010,07,09,04,02,17.50
2010,07,09,04,03,17.50
2010,07,09,04,04,17.40
2010,07,09,04,05,17.40
2010,07,09,04,06,17.40
2010,07,09,04,07,17.30
2010,07,09,04,08,17.30
2010,07,09,04,09,17.30
2010,07,09,04,10,17.30
2010,07,09,04,11,17.30
2010,07,09,04,12,17.20
2010,07,09,04,13,17.20
2010,07,09,04,14,17.10
2010,07,09,04,15,17.10
2010,07,09,04,16,17.10
2010,07,09,04,17,17.00
2010,07,09,04,18,17.00
2010,07,09,04,19,17.00
2010,07,09,04,20,17.00
2010,07,09,04,21,16.90
2010,07,09,04,22,16.90
2010,07,09,04,23,16.90
2010,07,09,04,24,16.80
2010,07,09,04,25,16.80
2010,07,09,04,26,16.80
2010,07,09,04,27,16.70
2010,07,09,04,28,16.70
2010,07,09,04,29,16.70
2010,07,09,04,30,16.60
2010,07,09,04,31,16.60
2010,07,09,04,32,16.60
2010,07,09,04,33,16.50
2010,07,09,04,34,16.40
2010,07,09,04,35,16.40
2010,07,09,04,36,16.40
2010,07,09,04,37,16.40
2010,07,09,04,38,16.40
2010,07,09,04,39,16.40
2010,07,09,04,40,16.40
2010,07,09,04,41,16.40
2010,07,09,04,42,16.40
2010,07,09,04,43,16.40
2010,07,09,04,44,16.30
2010,07,09,04,45,16.30
2010,07,09,04,46,16.30
2010,07,09,04,47,16.30
2010,07,09,04,48,16.30
2010,07,09,04,49,16.30
2010,07,09,04,50,16.30
2010,07,09,04,51,16.30
2010,07,09,04,52,16.30
2010,07,09,04,53,16.30
2010,07,09,04,54,16.30
2010,07,09,04,55,16.30
2010,07,09,04,56,16.30
2010,07,09,04,57,16.30
2010,07,09,04,58,16.30
2010,07,09,04,59,16.30
2010,07,09,05,00,16.20
2010,07,09,05,01,16.20
2010,07,09,05,02,16.20
2010,07,09,05,03,16.20
2010,07,09,05,04,16.20
2010,07,09,05,05,16.20
2010,07,09,05,06,16.20
2010,07,09,05,07,16.20
2010,07,09,05,08,16.10
2010,07,09,05,09,16.10
2010,07,09,05,10,16.10
2010,07,09,05,11,16.10
2010,07,09,05,12,16.10
2010,07,09,05,13,16.10
2010,07,09,05,14,16.10
2010,07,09,05,15,16.10
2010,07,09,05,16,16.10
2010,07,09,05,17,16.10
2010,07,09,05,18,16.10
2010,07,09,05,19,16.10
2010,07,09,05,20,16.10
2010,07,09,05,21,16.10
2010,07,09,05,22,16.10
2010,07,09,05,23,16.10
2010,07,09,05,24,16.10
2010,07,09,05,25,16.00
2010,07,09,05,26,15.90
2010,07,09,05,27,15.90
2010,07,09,05,28,15.90
2010,07,09,05,29,15.90
2010,07,09,05,30,15.90
2010,07,09,05,31,15.80
2010,07,09,05,32,15.80
2010,07,09,05,33,15.80
2010,07,09,05,34,15.80
2010,07,09,05,35,15.80
2010,07,09,05,36,15.80
2010,07,09,05,37,15.80
2010,07,09,05,38,15.80
2010,07,09,05,39,15.90
2010,07,09,05,40,16.00
2010,07,09,05,41,16.10
2010,07,09,05,42,16.30
2010,07,09,05,43,16.40
2010,07,09,05,44,16.40
2010,07,09,05,45,16.50
2010,07,09,05,46,16.60
2010,07,09,05,47,16.70
2010,07,09,05,48,16.70
2010,07,09,05,49,16.80
2010,07,09,05,50,16.80
2010,07,09,05,51,16.90
2010,07,09,05,52,17.00
2010,07,09,05,53,17.00
2010,07,09,05,54,17.10
2010,07,09,05,55,17.10
2010,07,09,05,56,17.10
2010,07,09,05,57,17.10
2010,07,09,05,58,17.10
2010,07,09,05,59,17.10
2010,07,09,06,00,17.10
2010,07,09,06,01,17.10
2010,07,09,06,02,17.10
2010,07,09,06,03,17.10
2010,07,09,06,04,17.10
2010,07,09,06,05,17.10
2010,07,09,06,06,17.10
2010,07,09,06,07,17.10
2010,07,09,06,08,17.10
2010,07,09,06,09,17.10
2010,07,09,06,10,17.20
2010,07,09,06,11,17.20
2010,07,09,06,12,17.20
2010,07,09,06,13,17.20
2010,07,09,06,14,17.30
2010,07,09,06,15,17.30
2010,07,09,06,16,17.30
2010,07,09,06,17,17.30
2010,07,09,06,18,17.40
2010,07,09,06,19,17.40
2010,07,09,06,20,17.50
2010,07,09,06,21,17.50
2010,07,09,06,22,17.60
2010,07,09,06,23,17.60
2010,07,09,06,24,17.70
2010,07,09,06,25,17.70
2010,07,09,06,26,17.80
2010,07,09,06,27,17.90
2010,07,09,06,28,17.90
2010,07,09,06,29,17.90
2010,07,09,06,30,17.90
2010,07,09,06,31,18.00
2010,07,09,06,32,18.10
2010,07,09,06,33,18.10
2010,07,09,06,34,18.20
2010,07,09,06,35,18.20
2010,07,09,06,36,18.20
2010,07,09,06,37,18.30
2010,07,09,06,38,18.40
2010,07,09,06,39,18.50
2010,07,09,06,40,18.50
2010,07,09,06,41,18.60
2010,07,09,06,42,18.60
2010,07,09,06,43,18.70
2010,07,09,06,44,18.80
2010,07,09,06,45,18.80
2010,07,09,06,46,18.90
2010,07,09,06,47,18.90
2010,07,09,06,48,19.10
2010,07,09,06,49,19.10
2010,07,09,06,50,19.10
2010,07,09,06,51,19.20
2010,07,09,06,52,19.30
2010,07,09,06,53,19.30
2010,07,09,06,54,19.40
2010,07,09,06,55,19.50
2010,07,09,06,56,19.50
2010,07,09,06,57,19.60
2010,07,09,06,58,19.60
2010,07,09,06,59,19.60
2010,07,09,07,00,19.70
2010,07,09,07,01,19.80
2010,07,09,07,02,19.80
2010,07,09,07,03,19.90
2010,07,09,07,04,19.90
2010,07,09,07,05,19.90
2010,07,09,07,06,19.90
2010,07,09,07,07,20.00
2010,07,09,07,08,20.10
2010,07,09,07,09,20.10
2010,07,09,07,10,20.10
2010,07,09,07,11,20.20
2010,07,09,07,12,20.20
2010,07,09,07,13,20.20
2010,07,09,07,14,20.20
2010,07,09,07,15,20.40
2010,07,09,07,16,20.40
2010,07,09,07,17,20.50
2010,07,09,07,18,20.60
2010,07,09,07,19,20.70
2010,07,09,07,20,20.80
2010,07,09,07,21,20.80
2010,07,09,07,22,20.90
2010,07,09,07,23,21.00
2010,07,09,07,24,21.10
2010,07,09,07,25,21.20
2010,07,09,07,26,21.30
2010,07,09,07,27,21.30
2010,07,09,07,28,21.50
2010,07,09,07,29,21.60
2010,07,09,07,30,21.60
2010,07,09,07,31,21.70
2010,07,09,07,32,21.80
2010,07,09,07,33,21.90
2010,07,09,07,34,22.00
2010,07,09,07,35,22.10
2010,07,09,07,36,22.20
2010,07,09,07,37,22.30
2010,07,09,07,38,22.40
2010,07,09,07,39,22.50
2010,07,09,07,40,22.60
2010,07,09,07,41,22.70
2010,07,09,07,42,22.80
2010,07,09,07,43,22.80
2010,07,09,07,44,22.90
2010,07,09,07,45,22.90
2010,07,09,07,46,22.90
2010,07,09,07,47,23.10
2010,07,09,07,48,23.10
2010,07,09,07,49,23.10
2010,07,09,07,50,23.20
2010,07,09,07,51,23.30
2010,07,09,07,52,23.30
2010,07,09,07,53,23.30
2010,07,09,07,54,23.40
2010,07,09,07,55,23.50
2010,07,09,07,56,23.60
2010,07,09,07,57,23.70
2010,07,09,07,58,23.70
2010,07,09,07,59,23.90
2010,07,09,08,00,24.00
2010,07,09,08,01,24.10
2010,07,09,08,02,24.10
2010,07,09,08,03,24.20
2010,07,09,08,04,24.30
2010,07,09,08,05,24.30
2010,07,09,08,06,24.40
2010,07,09,08,07,24.40
2010,07,09,08,08,24.40
2010,07,09,08,09,24.40
2010,07,09,08,10,24.50
2010,07,09,08,11,24.50
2010,07,09,08,12,24.50
2010,07,09,08,13,24.60
2010,07,09,08,14,24.60
2010,07,09,08,15,24.60
2010,07,09,08,16,24.70
2010,07,09,08,17,24.70
2010,07,09,08,18,24.80
2010,07,09,08,19,24.80
2010,07,09,08,20,24.90
2010,07,09,08,21,24.90
2010,07,09,08,22,24.90
2010,07,09,08,23,24.90
2010,07,09,08,24,24.90
2010,07,09,08,25,24.80
2010,07,09,08,26,24.80
2010,07,09,08,27,24.80
2010,07,09,08,28,24.80
2010,07,09,08,29,24.80
2010,07,09,08,30,24.80
2010,07,09,08,31,24.90
2010,07,09,08,32,24.90
2010,07,09,08,33,24.90
2010,07,09,08,34,25.00
2010,07,09,08,35,25.10
2010,07,09,08,36,25.20
2010,07,09,08,37,25.20
2010,07,09,08,38,25.20
2010,07,09,08,39,25.20
2010,07,09,08,40,25.30
2010,07,09,08,41,25.40
2010,07,09,08,42,25.40
2010,07,09,08,43,25.50
2010,07,09,08,44,25.60
2010,07,09,08,45,25.60
2010,07,09,08,46,25.60
2010,07,09,08,47,25.70
2010,07,09,08,48,25.70
2010,07,09,08,49,25.70
2010,07,09,08,50,25.70
2010,07,09,08,51,25.80
2010,07,09,08,52,25.80
2010,07,09,08,53,25.80
2010,07,09,08,54,25.90
2010,07,09,08,55,25.90
2010,07,09,08,56,25.90
2010,07,09,08,57,25.90
2010,07,09,08,58,26.00
2010,07,09,08,59,26.10
2010,07,09,09,00,26.10
2010,07,09,09,01,26.10
2010,07,09,09,02,26.10
2010,07,09,09,03,26.10
2010,07,09,09,04,26.00
2010,07,09,09,05,25.90
2010,07,09,09,06,25.80
2010,07,09,09,07,25.80
2010,07,09,09,08,25.70
2010,07,09,09,09,25.60
2010,07,09,09,10,25.60
2010,07,09,09,11,25.70
2010,07,09,09,12,25.80
2010,07,09,09,13,25.80
2010,07,09,09,14,25.70
2010,07,09,09,15,25.60
2010,07,09,09,16,25.50
2010,07,09,09,17,25.40
2010,07,09,09,18,25.30
2010,07,09,09,19,25.20
2010,07,09,09,20,25.20
2010,07,09,09,21,25.10
2010,07,09,09,22,25.20
2010,07,09,09,23,25.20
2010,07,09,09,24,25.20
2010,07,09,09,25,25.30
2010,07,09,09,26,25.30
2010,07,09,09,27,25.30
2010,07,09,09,28,25.20
2010,07,09,09,29,25.20
2010,07,09,09,30,25.20
2010,07,09,09,31,25.20
2010,07,09,09,32,25.20
2010,07,09,09,33,25.20
2010,07,09,09,34,25.20
2010,07,09,09,35,25.20
2010,07,09,09,36,25.30
2010,07,09,09,37,25.30
2010,07,09,09,38,25.40
2010,07,09,09,39,25.40
2010,07,09,09,40,25.50
2010,07,09,09,41,25.50
2010,07,09,09,42,25.50
2010,07,09,09,43,25.60
2010,07,09,09,44,25.60
2010,07,09,09,45,25.60
2010,07,09,09,46,25.70
2010,07,09,09,47,25.70
2010,07,09,09,48,25.70
2010,07,09,09,49,25.70
2010,07,09,09,50,25.70
2010,07,09,09,51,25.80
2010,07,09,09,52,25.90
2010,07,09,09,53,25.90
2010,07,09,09,54,26.00
2010,07,09,09,55,26.00
2010,07,09,09,56,26.10
2010,07,09,09,57,26.00
2010,07,09,09,58,26.00
2010,07,09,09,59,26.00
2010,07,09,10,00,26.00
2010,07,09,10,01,26.00
2010,07,09,10,02,26.00
2010,07,09,10,03,25.90
2010,07,09,10,04,25.90
2010,07,09,10,05,25.90
2010,07,09,10,06,25.90
2010,07,09,10,07,25.90
2010,07,09,10,08,25.90
2010,07,09,10,09,25.90
2010,07,09,10,10,25.90
2010,07,09,10,11,25.80
2010,07,09,10,12,25.80
2010,07,09,10,13,25.80
2010,07,09,10,14,25.80
2010,07,09,10,15,25.90
2010,07,09,10,16,25.80
2010,07,09,10,17,25.80
2010,07,09,10,18,25.80
2010,07,09,10,19,25.90
2010,07,09,10,20,25.90
2010,07,09,10,21,26.00
2010,07,09,10,22,26.00
2010,07,09,10,23,26.00
2010,07,09,10,24,26.00
2010,07,09,10,25,26.00
2010,07,09,10,26,26.00
2010,07,09,10,27,26.10
2010,07,09,10,28,26.10
2010,07,09,10,29,26.00
2010,07,09,10,30,25.90
2010,07,09,10,31,25.80
2010,07,09,10,32,25.80
2010,07,09,10,33,25.80
2010,07,09,10,34,25.70
2010,07,09,10,35,25.70
2010,07,09,10,36,25.70
2010,07,09,10,37,25.70
2010,07,09,10,38,25.60
2010,07,09,10,39,25.60
2010,07,09,10,40,25.50
2010,07,09,10,41,25.50
2010,07,09,10,42,25.50
2010,07,09,10,43,25.50
2010,07,09,10,44,25.50
2010,07,09,10,45,25.60
2010,07,09,10,46,25.70
2010,07,09,10,47,25.80
2010,07,09,10,48,25.80
2010,07,09,10,49,25.90
2010,07,09,10,50,25.90
2010,07,09,10,51,25.90
2010,07,09,10,52,26.00
2010,07,09,10,53,26.10
2010,07,09,10,54,26.20
2010,07,09,10,55,26.30
2010,07,09,10,56,26.40
2010,07,09,10,57,26.50
2010,07,09,10,58,26.60
2010,07,09,10,59,26.60
2010,07,09,11,00,26.60
2010,07,09,11,01,26.60
2010,07,09,11,02,26.60
2010,07,09,11,03,26.60
2010,07,09,11,04,26.50
2010,07,09,11,05,26.40
2010,07,09,11,06,26.30
2010,07,09,11,07,26.30
2010,07,09,11,08,26.30
2010,07,09,11,09,26.30
2010,07,09,11,10,26.40
2010,07,09,11,11,26.50
2010,07,09,11,12,26.60
2010,07,09,11,13,26.60
2010,07,09,11,14,26.50
2010,07,09,11,15,26.40
2010,07,09,11,16,26.30
2010,07,09,11,17,26.30
2010,07,09,11,18,26.20
2010,07,09,11,19,26.20
2010,07,09,11,20,26.30
2010,07,09,11,21,26.30
2010,07,09,11,22,26.40
2010,07,09,11,23,26.40
2010,07,09,11,24,26.40
2010,07,09,11,25,26.40
2010,07,09,11,26,26.40
2010,07,09,11,27,26.40
2010,07,09,11,28,26.50
2010,07,09,11,29,26.60
2010,07,09,11,30,26.70
2010,07,09,11,31,26.70
2010,07,09,11,32,26.80
2010,07,09,11,33,26.90
2010,07,09,11,34,27.00
2010,07,09,11,35,27.10
2010,07,09,11,36,27.10
2010,07,09,11,37,27.20
2010,07,09,11,38,27.30
2010,07,09,11,39,27.30
2010,07,09,11,40,27.40
2010,07,09,11,41,27.50
2010,07,09,11,42,27.50
2010,07,09,11,43,27.60
2010,07,09,11,44,27.50
2010,07,09,11,45,27.40
2010,07,09,11,46,27.40
2010,07,09,11,47,27.40
2010,07,09,11,48,27.40
2010,07,09,11,49,27.30
2010,07,09,11,50,27.30
2010,07,09,11,51,27.30
2010,07,09,11,52,27.30
2010,07,09,11,53,27.30
2010,07,09,11,54,27.30
2010,07,09,11,55,27.30
2010,07,09,11,56,27.30
2010,07,09,11,57,27.40
2010,07,09,11,58,27.60
2010,07,09,11,59,27.70
2010,07,09,12,00,27.70
2010,07,09,12,01,27.70
2010,07,09,12,02,27.70
2010,07,09,12,03,27.60
2010,07,09,12,04,27.60
2010,07,09,12,05,27.50
2010,07,09,12,06,27.40
2010,07,09,12,07,27.30
2010,07,09,12,08,27.30
2010,07,09,12,09,27.40
2010,07,09,12,10,27.40
2010,07,09,12,11,27.30
2010,07,09,12,12,27.30
2010,07,09,12,13,27.30
2010,07,09,12,14,27.30
2010,07,09,12,15,27.30
2010,07,09,12,16,27.30
2010,07,09,12,17,27.30
2010,07,09,12,18,27.30
2010,07,09,12,19,27.40
2010,07,09,12,20,27.40
2010,07,09,12,21,27.40
2010,07,09,12,22,27.50
2010,07,09,12,23,27.60
2010,07,09,12,24,27.70
2010,07,09,12,25,27.80
2010,07,09,12,26,27.80
2010,07,09,12,27,27.90
2010,07,09,12,28,27.90
2010,07,09,12,29,28.00
2010,07,09,12,30,28.00
2010,07,09,12,31,28.00
2010,07,09,12,32,28.10
2010,07,09,12,33,28.10
2010,07,09,12,34,28.20
2010,07,09,12,35,28.20
2010,07,09,12,36,28.20
2010,07,09,12,37,28.20
2010,07,09,12,38,28.10
2010,07,09,12,39,28.00
2010,07,09,12,40,27.90
2010,07,09,12,41,27.90
2010,07,09,12,42,27.90
2010,07,09,12,43,28.00
2010,07,09,12,44,27.90
2010,07,09,12,45,27.90
2010,07,09,12,46,27.90
2010,07,09,12,47,27.80
2010,07,09,12,48,27.90
2010,07,09,12,49,27.80
2010,07,09,12,50,27.70
2010,07,09,12,51,27.60
2010,07,09,12,52,27.50
2010,07,09,12,53,27.50
2010,07,09,12,54,27.40
2010,07,09,12,55,27.30
2010,07,09,12,56,27.30
2010,07,09,12,57,27.30
2010,07,09,12,58,27.30
2010,07,09,12,59,27.30
2010,07,09,13,00,27.40
2010,07,09,13,01,27.40
2010,07,09,13,02,27.40
2010,07,09,13,03,27.40
2010,07,09,13,04,27.30
2010,07,09,13,05,27.20
2010,07,09,13,06,27.10
2010,07,09,13,07,27.00
2010,07,09,13,08,26.90
2010,07,09,13,09,27.00
2010,07,09,13,10,27.10
2010,07,09,13,11,27.20
2010,07,09,13,12,27.20
2010,07,09,13,13,27.20
2010,07,09,13,14,27.30
2010,07,09,13,15,27.30
2010,07,09,13,16,27.30
2010,07,09,13,17,27.40
2010,07,09,13,18,27.60
2010,07,09,13,19,27.60
2010,07,09,13,20,27.60
2010,07,09,13,21,27.60
2010,07,09,13,22,27.60
2010,07,09,13,23,27.60
2010,07,09,13,24,27.70
2010,07,09,13,25,27.70
2010,07,09,13,26,27.70
2010,07,09,13,27,27.80
2010,07,09,13,28,27.90
2010,07,09,13,29,28.10
2010,07,09,13,30,28.20
2010,07,09,13,31,28.10
2010,07,09,13,32,28.10
2010,07,09,13,33,28.10
2010,07,09,13,34,28.20
2010,07,09,13,35,28.20
2010,07,09,13,36,28.20
2010,07,09,13,37,28.20
2010,07,09,13,38,28.20
2010,07,09,13,39,28.20
2010,07,09,13,40,28.10
2010,07,09,13,41,28.10
2010,07,09,13,42,28.00
2010,07,09,13,43,28.00
2010,07,09,13,44,28.00
2010,07,09,13,45,28.10
2010,07,09,13,46,28.20
2010,07,09,13,47,28.30
2010,07,09,13,48,28.30
2010,07,09,13,49,28.30
2010,07,09,13,50,28.30
2010,07,09,13,51,28.40
2010,07,09,13,52,28.50
2010,07,09,13,53,28.60
2010,07,09,13,54,28.70
2010,07,09,13,55,28.80
2010,07,09,13,56,28.80
2010,07,09,13,57,28.80
2010,07,09,13,58,28.70
2010,07,09,13,59,28.70
2010,07,09,14,00,28.70
2010,07,09,14,01,28.70
2010,07,09,14,02,28.80
2010,07,09,14,03,28.80
2010,07,09,14,04,28.80
2010,07,09,14,05,28.80
2010,07,09,14,06,28.90
2010,07,09,14,07,28.90
2010,07,09,14,08,28.80
2010,07,09,14,09,28.80
2010,07,09,14,10,28.80
2010,07,09,14,11,28.90
2010,07,09,14,12,28.90
2010,07,09,14,13,28.90
2010,07,09,14,14,28.90
2010,07,09,14,15,28.90
2010,07,09,14,16,28.80
2010,07,09,14,17,28.90
2010,07,09,14,18,28.90
2010,07,09,14,19,28.80
2010,07,09,14,20,28.80
2010,07,09,14,21,28.80
2010,07,09,14,22,28.80
2010,07,09,14,23,28.80
2010,07,09,14,24,28.80
2010,07,09,14,25,28.90
2010,07,09,14,26,28.90
2010,07,09,14,27,28.80
2010,07,09,14,28,28.80
2010,07,09,14,29,28.90
2010,07,09,14,30,28.90
2010,07,09,14,31,28.90
2010,07,09,14,32,28.90
2010,07,09,14,33,29.00
2010,07,09,14,34,29.10
2010,07,09,14,35,29.10
2010,07,09,14,36,29.10
2010,07,09,14,37,29.10
2010,07,09,14,38,29.10
2010,07,09,14,39,29.20
2010,07,09,14,40,29.30
2010,07,09,14,41,29.40
2010,07,09,14,42,29.40
2010,07,09,14,43,29.50
2010,07,09,14,44,29.60
2010,07,09,14,45,29.70
2010,07,09,14,46,29.80
2010,07,09,14,47,29.80
2010,07,09,14,48,29.80
2010,07,09,14,49,29.80
2010,07,09,14,50,29.80
2010,07,09,14,51,29.70
2010,07,09,14,52,29.60
2010,07,09,14,53,29.40
2010,07,09,14,54,29.30
2010,07,09,14,55,29.10
2010,07,09,14,56,29.00
2010,07,09,14,57,29.00
2010,07,09,14,58,29.10
2010,07,09,14,59,29.10
2010,07,09,15,00,29.20
2010,07,09,15,01,29.40
2010,07,09,15,02,29.40
2010,07,09,15,03,29.60
2010,07,09,15,04,29.70
2010,07,09,15,05,29.70
2010,07,09,15,06,29.80
2010,07,09,15,07,29.80
2010,07,09,15,08,29.80
2010,07,09,15,09,29.80
2010,07,09,15,10,29.80
2010,07,09,15,11,29.70
2010,07,09,15,12,29.70
2010,07,09,15,13,29.70
2010,07,09,15,14,29.70
2010,07,09,15,15,29.70
2010,07,09,15,16,29.70
2010,07,09,15,17,29.70
2010,07,09,15,18,29.70
2010,07,09,15,19,29.80
2010,07,09,15,20,29.80
2010,07,09,15,21,29.80
2010,07,09,15,22,29.80
2010,07,09,15,23,29.80
2010,07,09,15,24,29.70
2010,07,09,15,25,29.70
2010,07,09,15,26,29.60
2010,07,09,15,27,29.40
2010,07,09,15,28,29.30
2010,07,09,15,29,29.20
2010,07,09,15,30,29.00
2010,07,09,15,31,28.90
2010,07,09,15,32,28.90
2010,07,09,15,33,28.80
2010,07,09,15,34,28.80
2010,07,09,15,35,28.80
2010,07,09,15,36,28.80
2010,07,09,15,37,28.80
2010,07,09,15,38,28.80
2010,07,09,15,39,28.90
2010,07,09,15,40,28.90
2010,07,09,15,41,29.00
2010,07,09,15,42,29.10
2010,07,09,15,43,29.20
2010,07,09,15,44,29.20
2010,07,09,15,45,29.30
2010,07,09,15,46,29.30
2010,07,09,15,47,29.30
2010,07,09,15,48,29.40
2010,07,09,15,49,29.40
2010,07,09,15,50,29.30
2010,07,09,15,51,29.30
2010,07,09,15,52,29.30
2010,07,09,15,53,29.30
2010,07,09,15,54,29.30
2010,07,09,15,55,29.20
2010,07,09,15,56,29.20
2010,07,09,15,57,29.20
2010,07,09,15,58,29.20
2010,07,09,15,59,29.20
2010,07,09,16,00,29.20
2010,07,09,16,01,29.20
2010,07,09,16,02,29.20
2010,07,09,16,03,29.20
2010,07,09,16,04,29.10
2010,07,09,16,05,28.90
2010,07,09,16,06,28.80
2010,07,09,16,07,28.70
2010,07,09,16,08,28.60
2010,07,09,16,09,28.60
2010,07,09,16,10,28.50
2010,07,09,16,11,28.30
2010,07,09,16,12,28.20
2010,07,09,16,13,28.10
2010,07,09,16,14,28.00
2010,07,09,16,15,28.00
2010,07,09,16,16,28.00
2010,07,09,16,17,28.00
2010,07,09,16,18,28.00
2010,07,09,16,19,28.00
2010,07,09,16,20,28.00
2010,07,09,16,21,27.90
2010,07,09,16,22,27.90
2010,07,09,16,23,27.90
2010,07,09,16,24,27.80
2010,07,09,16,25,27.80
2010,07,09,16,26,27.70
2010,07,09,16,27,27.70
2010,07,09,16,28,27.70
2010,07,09,16,29,27.60
2010,07,09,16,30,27.60
2010,07,09,16,31,27.40
2010,07,09,16,32,27.40
2010,07,09,16,33,27.30
2010,07,09,16,34,27.30
2010,07,09,16,35,27.30
2010,07,09,16,36,27.30
2010,07,09,16,37,27.30
2010,07,09,16,38,27.30
2010,07,09,16,39,27.30
2010,07,09,16,40,27.30
2010,07,09,16,41,27.30
2010,07,09,16,42,27.30
2010,07,09,16,43,27.30
2010,07,09,16,44,27.30
2010,07,09,16,45,27.30
2010,07,09,16,46,27.30
2010,07,09,16,47,27.30
2010,07,09,16,48,27.30
2010,07,09,16,49,27.20
2010,07,09,16,50,27.20
2010,07,09,16,51,27.10
2010,07,09,16,52,27.00
2010,07,09,16,53,26.90
2010,07,09,16,54,26.90
2010,07,09,16,55,26.90
2010,07,09,16,56,26.80
2010,07,09,16,57,26.80
2010,07,09,16,58,26.80
2010,07,09,16,59,26.70
2010,07,09,17,00,26.70
2010,07,09,17,01,26.60
2010,07,09,17,02,26.60
2010,07,09,17,03,26.60
2010,07,09,17,04,26.50
2010,07,09,17,05,26.40
2010,07,09,17,06,26.40
2010,07,09,17,07,26.40
2010,07,09,17,08,26.40
2010,07,09,17,09,26.40
2010,07,09,17,10,26.40
2010,07,09,17,11,26.40
2010,07,09,17,12,26.50
2010,07,09,17,13,26.60
2010,07,09,17,14,26.60
2010,07,09,17,15,26.60
2010,07,09,17,16,26.60
2010,07,09,17,17,26.60
2010,07,09,17,18,26.60
2010,07,09,17,19,26.60